18-11-2022, 00:00:08,    257,    4.5,    6.3,   0.00,   0.00,  991.2,   73.0, -999.0
18-11-2022, 00:00:19,    229,    3.3,    6.3,   0.00,   0.00,  991.2,   72.9, -999.0
18-11-2022, 00:00:28,    260,    2.8,    6.2,   0.00,   0.00,  991.2,   73.1, -999.0
18-11-2022, 00:00:38,    280,    3.2,    6.3,   0.00,   0.00,  991.2,   73.1, -999.0
18-11-2022, 00:00:48,    289,    1.9,    6.3,   0.00,   0.00,  991.2,   73.1, -999.0
18-11-2022, 00:00:58,    276,    0.5,    6.3,   0.00,   0.00,  991.2,   73.1, -999.0
18-11-2022, 00:01:08,    255,    1.2,    6.3,   0.00,   0.00,  991.2,   73.2, -999.0
18-11-2022, 00:01:18,    265,    3.5,    6.1,   0.00,   0.00,  991.2,   73.2, -999.0
18-11-2022, 00:01:28,    240,    1.6,    6.3,   0.00,   0.00,  991.2,   73.0, -999.0
18-11-2022, 00:01:38,    256,    1.5,    6.2,   0.00,   0.00,  991.2,   73.0, -999.0
18-11-2022, 00:01:48,    231,    1.5,    6.3,   0.00,   0.00,  991.3,   73.2, -999.0
18-11-2022, 00:01:58,    242,    1.9,    6.3,   0.00,   0.00,  991.2,   73.2, -999.0
18-11-2022, 00:02:08,    243,    2.7,    6.3,   0.00,   0.00,  991.3,   73.1, -999.0
18-11-2022, 00:02:18,    278,    2.3,    6.2,   0.00,   0.00,  991.3,   73.1, -999.0
18-11-2022, 00:02:28,    256,    1.8,    6.3,   0.00,   0.00,  991.3,   73.2, -999.0
18-11-2022, 00:02:38,    243,    1.2,    6.3,   0.00,   0.00,  991.2,   73.3, -999.0
18-11-2022, 00:02:48,    243,    0.0,    6.3,   0.00,   0.00,  991.1,   72.7, -999.0
18-11-2022, 00:02:58,    254,    0.1,    6.2,   0.00,   0.00,  991.2,   73.0, -999.0
18-11-2022, 00:03:08,    213,    3.4,    6.2,   0.00,   0.00,  991.3,   73.3, -999.0
18-11-2022, 00:03:18,    222,    3.6,    6.2,   0.00,   0.00,  991.2,   73.2, -999.0
18-11-2022, 00:03:28,    252,    2.7,    6.2,   0.00,   0.00,  991.3,   73.2, -999.0
18-11-2022, 00:03:38,    216,    2.9,    6.3,   0.00,   0.00,  991.3,   73.2, -999.0
18-11-2022, 00:03:48,    232,    0.6,    6.2,   0.00,   0.00,  991.3,   73.2, -999.0
18-11-2022, 00:03:58,    264,    0.5,    6.3,   0.00,   0.00,  991.3,   73.2, -999.0
18-11-2022, 00:04:08,    263,    0.2,    6.2,   0.00,   0.00,  991.2,   73.1, -999.0
18-11-2022, 00:04:18,    225,    2.3,    6.3,   0.00,   0.00,  991.3,   73.4, -999.0
18-11-2022, 00:04:28,    254,    2.3,    6.3,   0.00,   0.00,  991.3,   73.3, -999.0
18-11-2022, 00:04:38,    226,    3.0,    6.3,   0.00,   0.00,  991.3,   73.3, -999.0
18-11-2022, 00:04:48,    253,    1.2,    6.3,   0.00,   0.00,  991.3,   73.2, -999.0
18-11-2022, 00:04:58,    297,    2.9,    6.2,   0.00,   0.00,  991.2,   73.2, -999.0
18-11-2022, 00:05:07,    262,    0.5,    6.3,   0.00,   0.00,  991.3,   73.2, -999.0
18-11-2022, 00:05:18,    234,    1.4,    6.3,   0.00,   0.00,  991.3,   73.3, -999.0
18-11-2022, 00:05:28,    258,    1.8,    6.3,   0.00,   0.00,  991.2,   73.2, -999.0
18-11-2022, 00:05:37,    225,    1.6,    6.3,   0.00,   0.00,  991.3,   73.1, -999.0
18-11-2022, 00:05:47,    247,    2.9,    6.3,   0.00,   0.00,  991.3,   73.4, -999.0
18-11-2022, 00:05:58,    226,    2.6,    6.3,   0.00,   0.00,  991.3,   73.3, -999.0
18-11-2022, 00:06:07,    227,    1.5,    6.3,   0.00,   0.00,  991.3,   73.3, -999.0
18-11-2022, 00:06:17,    237,    1.6,    6.3,   0.00,   0.00,  991.3,   73.2, -999.0
18-11-2022, 00:06:28,    281,    2.0,    6.3,   0.00,   0.00,  991.3,   73.2, -999.0
18-11-2022, 00:06:37,    239,    0.8,    6.3,   0.00,   0.00,  991.3,   73.2, -999.0
18-11-2022, 00:06:47,    253,    4.1,    6.3,   0.00,   0.00,  991.3,   73.2, -999.0
18-11-2022, 00:06:57,    246,    4.0,    6.3,   0.00,   0.00,  991.3,   73.1, -999.0
18-11-2022, 00:07:07,    274,    4.0,    6.3,   0.00,   0.00,  991.3,   73.1, -999.0
18-11-2022, 00:07:17,    238,    2.9,    6.3,   0.00,   0.00,  991.3,   73.0, -999.0
18-11-2022, 00:07:27,    222,    2.9,    6.3,   0.00,   0.00,  991.3,   73.0, -999.0
18-11-2022, 00:07:37,    268,    2.5,    6.3,   0.00,   0.00,  991.3,   73.0, -999.0
18-11-2022, 00:07:47,    243,    3.1,    6.3,   0.00,   0.00,  991.3,   73.0, -999.0
18-11-2022, 00:07:57,    236,    1.8,    6.2,   0.00,   0.00,  991.2,   73.0, -999.0
18-11-2022, 00:08:07,    250,    2.4,    6.2,   0.00,   0.00,  991.3,   73.1, -999.0
18-11-2022, 00:08:17,    239,    2.2,    6.1,   0.00,   0.00,  991.3,   73.2, -999.0
18-11-2022, 00:08:27,    252,    3.5,    6.3,   0.00,   0.00,  991.3,   73.3, -999.0
18-11-2022, 00:08:37,    250,    1.1,    6.3,   0.00,   0.00,  991.3,   73.0, -999.0
18-11-2022, 00:08:47,    275,    0.8,    6.2,   0.00,   0.00,  991.3,   73.0, -999.0
18-11-2022, 00:08:57,    284,    2.1,    6.3,   0.00,   0.00,  991.3,   73.0, -999.0
18-11-2022, 00:09:07,    283,    0.5,    6.2,   0.00,   0.00,  991.3,   73.2, -999.0
18-11-2022, 00:09:17,    229,    0.2,    6.2,   0.00,   0.00,  991.3,   72.9, -999.0
18-11-2022, 00:09:27,    268,    2.2,    6.2,   0.00,   0.00,  991.3,   73.2, -999.0
18-11-2022, 00:09:37,    258,    2.7,    6.3,   0.00,   0.00,  991.3,   73.3, -999.0
18-11-2022, 00:09:47,    275,    1.8,    6.2,   0.00,   0.00,  991.4,   73.3, -999.0
18-11-2022, 00:09:57,    270,    4.2,    6.2,   0.00,   0.00,  991.3,   73.3, -999.0
18-11-2022, 00:10:07,    282,    3.4,    6.2,   0.00,   0.00,  991.3,   73.1, -999.0
18-11-2022, 00:10:17,    268,    3.7,    6.3,   0.00,   0.00,  991.3,   73.1, -999.0
18-11-2022, 00:10:27,    273,    2.6,    6.3,   0.00,   0.00,  991.3,   73.1, -999.0
18-11-2022, 00:10:37,    259,    2.5,    6.2,   0.00,   0.00,  991.3,   73.1, -999.0
18-11-2022, 00:10:46,    176,    0.5,    6.3,   0.00,   0.00,  991.3,   73.1, -999.0
18-11-2022, 00:10:58,    261,    0.0,    6.2,   0.00,   0.00,  991.3,   73.0, -999.0
18-11-2022, 00:11:07,    235,    3.5,    6.3,   0.00,   0.00,  991.4,   73.4, -999.0
18-11-2022, 00:11:16,    274,    3.9,    6.3,   0.00,   0.00,  991.4,   73.2, -999.0
18-11-2022, 00:11:26,    256,    3.0,    6.3,   0.00,   0.00,  991.4,   73.1, -999.0
18-11-2022, 00:11:37,    243,    3.7,    6.2,   0.00,   0.00,  991.4,   73.1, -999.0
18-11-2022, 00:11:46,    241,    3.2,    6.3,   0.00,   0.00,  991.4,   73.1, -999.0
18-11-2022, 00:11:56,    287,    5.4,    6.3,   0.00,   0.00,  991.4,   73.1, -999.0
18-11-2022, 00:12:06,    255,    3.0,    6.3,   0.00,   0.00,  991.4,   73.1, -999.0
18-11-2022, 00:12:16,    230,    1.7,    6.3,   0.00,   0.00,  991.4,   73.0, -999.0
18-11-2022, 00:12:26,    255,    2.1,    6.3,   0.00,   0.00,  991.4,   73.1, -999.0
18-11-2022, 00:12:36,    191,    0.9,    6.3,   0.00,   0.00,  991.4,   73.0, -999.0
18-11-2022, 00:12:46,    309,    1.5,    6.3,   0.00,   0.00,  991.4,   73.1, -999.0
18-11-2022, 00:12:56,    258,    1.3,    6.3,   0.00,   0.00,  991.4,   73.2, -999.0
18-11-2022, 00:13:06,    251,    0.7,    6.3,   0.00,   0.00,  991.4,   73.1, -999.0
18-11-2022, 00:13:16,    274,    0.7,    6.3,   0.00,   0.00,  991.3,   73.0, -999.0
18-11-2022, 00:13:26,    249,    3.2,    6.3,   0.00,   0.00,  991.4,   73.0, -999.0
18-11-2022, 00:13:36,    249,    1.7,    6.2,   0.00,   0.00,  991.4,   73.0, -999.0
18-11-2022, 00:13:46,    232,    3.0,    6.2,   0.00,   0.00,  991.4,   73.1, -999.0
18-11-2022, 00:13:56,    327,    3.2,    6.3,   0.00,   0.00,  991.4,   73.1, -999.0
18-11-2022, 00:14:06,    250,    1.4,    6.3,   0.00,   0.00,  991.4,   73.2, -999.0
18-11-2022, 00:14:16,    260,    1.0,    6.3,   0.00,   0.00,  991.4,   73.2, -999.0
18-11-2022, 00:14:26,    291,    1.1,    6.3,   0.00,   0.00,  991.4,   73.2, -999.0
18-11-2022, 00:14:36,    249,    1.3,    6.3,   0.00,   0.00,  991.4,   73.1, -999.0
18-11-2022, 00:14:46,    248,    1.4,    6.3,   0.00,   0.00,  991.4,   73.1, -999.0
18-11-2022, 00:14:56,    248,    2.9,    6.4,   0.00,   0.00,  991.4,   73.1, -999.0
18-11-2022, 00:15:06,    225,    1.4,    6.3,   0.00,   0.00,  991.4,   73.0, -999.0
18-11-2022, 00:15:16,    254,    1.2,    6.3,   0.00,   0.00,  991.4,   73.1, -999.0
18-11-2022, 00:15:26,    285,    1.3,    6.2,   0.00,   0.00,  991.4,   73.1, -999.0
18-11-2022, 00:15:36,    283,    0.5,    6.2,   0.00,   0.00,  991.4,   73.0, -999.0
18-11-2022, 00:15:46,    269,    0.9,    6.2,   0.00,   0.00,  991.3,   73.0, -999.0
18-11-2022, 00:15:55,    242,    1.9,    6.3,   0.00,   0.00,  991.4,   73.1, -999.0
18-11-2022, 00:16:06,    209,    1.0,    6.3,   0.00,   0.00,  991.4,   73.1, -999.0
18-11-2022, 00:16:16,    247,    0.7,    6.3,   0.00,   0.00,  991.4,   73.4, -999.0
18-11-2022, 00:16:25,    235,    0.9,    6.3,   0.00,   0.00,  991.4,   73.3, -999.0
18-11-2022, 00:16:36,    235,    0.3,    6.3,   0.00,   0.00,  991.3,   73.0, -999.0
18-11-2022, 00:16:46,    237,    0.0,    6.2,   0.00,   0.00,  991.2,   72.9, -999.0
18-11-2022, 00:16:55,    258,    1.8,    6.3,   0.00,   0.00,  991.4,   73.4, -999.0
18-11-2022, 00:17:05,    260,    4.4,    6.3,   0.00,   0.00,  991.4,   73.2, -999.0
18-11-2022, 00:17:16,    240,    2.9,    6.3,   0.00,   0.00,  991.4,   73.2, -999.0
18-11-2022, 00:17:25,    239,    0.3,    6.2,   0.00,   0.00,  991.3,   73.1, -999.0
18-11-2022, 00:17:35,    282,    0.3,    6.2,   0.00,   0.00,  991.3,   72.9, -999.0
18-11-2022, 00:17:45,    261,    3.1,    6.2,   0.00,   0.00,  991.4,   73.3, -999.0
18-11-2022, 00:17:56,    242,    4.4,    6.2,   0.00,   0.00,  991.4,   73.3, -999.0
18-11-2022, 00:18:05,    239,    0.6,    6.2,   0.00,   0.00,  991.3,   73.0, -999.0
18-11-2022, 00:18:15,    245,    0.2,    6.2,   0.00,   0.00,  991.3,   73.2, -999.0
18-11-2022, 00:18:25,    229,    2.2,    6.3,   0.00,   0.00,  991.4,   73.4, -999.0
18-11-2022, 00:18:35,    269,    3.0,    6.2,   0.00,   0.00,  991.4,   73.2, -999.0
18-11-2022, 00:18:45,    259,    1.2,    6.3,   0.00,   0.00,  991.4,   73.1, -999.0
18-11-2022, 00:18:55,    228,    1.8,    6.3,   0.00,   0.00,  991.4,   73.2, -999.0
18-11-2022, 00:19:05,    248,    2.2,    6.3,   0.00,   0.00,  991.4,   73.2, -999.0
18-11-2022, 00:19:15,    243,    2.5,    6.4,   0.00,   0.00,  991.4,   73.2, -999.0
18-11-2022, 00:19:25,    287,    1.6,    6.3,   0.00,   0.00,  991.4,   73.1, -999.0
18-11-2022, 00:19:35,    237,    0.7,    6.2,   0.00,   0.00,  991.4,   73.0, -999.0
18-11-2022, 00:19:45,    258,    1.9,    6.3,   0.00,   0.00,  991.4,   73.1, -999.0
18-11-2022, 00:19:55,    256,    1.2,    6.3,   0.00,   0.00,  991.4,   73.2, -999.0
18-11-2022, 00:20:05,    253,    0.3,    6.2,   0.00,   0.00,  991.4,   73.1, -999.0
18-11-2022, 00:20:15,    252,    3.4,    6.3,   0.00,   0.00,  991.5,   73.1, -999.0
18-11-2022, 00:20:25,    251,    2.6,    6.3,   0.00,   0.00,  991.5,   73.2, -999.0
18-11-2022, 00:20:35,    248,    2.1,    6.3,   0.00,   0.00,  991.4,   73.1, -999.0
18-11-2022, 00:20:45,    254,    2.0,    6.2,   0.00,   0.00,  991.4,   73.0, -999.0
18-11-2022, 00:20:55,    254,    2.1,    6.3,   0.00,   0.00,  991.4,   73.2, -999.0
18-11-2022, 00:21:04,    255,    2.0,    6.2,   0.00,   0.00,  991.5,   73.2, -999.0
18-11-2022, 00:21:15,    274,    3.5,    6.2,   0.00,   0.00,  991.5,   73.2, -999.0
18-11-2022, 00:21:25,    254,    5.0,    6.3,   0.00,   0.00,  991.5,   73.1, -999.0
18-11-2022, 00:21:34,    262,    3.6,    6.3,   0.00,   0.00,  991.5,   73.2, -999.0
18-11-2022, 00:21:45,    252,    3.8,    6.3,   0.00,   0.00,  991.5,   73.0, -999.0
18-11-2022, 00:21:55,    224,    1.4,    6.3,   0.00,   0.00,  991.5,   73.1, -999.0
18-11-2022, 00:22:04,    235,    1.8,    6.3,   0.00,   0.00,  991.5,   73.2, -999.0
18-11-2022, 00:22:14,    257,    1.7,    6.3,   0.00,   0.00,  991.5,   73.2, -999.0
18-11-2022, 00:22:25,    269,    3.3,    6.3,   0.00,   0.00,  991.5,   73.2, -999.0
18-11-2022, 00:22:34,    245,    2.8,    6.3,   0.00,   0.00,  991.5,   73.2, -999.0
18-11-2022, 00:22:44,    250,    3.8,    6.3,   0.00,   0.00,  991.5,   73.3, -999.0
18-11-2022, 00:22:54,    255,    3.9,    6.3,   0.00,   0.00,  991.6,   73.3, -999.0
18-11-2022, 00:23:05,    237,    4.4,    6.3,   0.00,   0.00,  991.6,   73.3, -999.0
18-11-2022, 00:23:14,    246,    3.4,    6.3,   0.00,   0.00,  991.5,   73.2, -999.0
18-11-2022, 00:23:24,    264,    3.3,    6.3,   0.00,   0.00,  991.6,   73.1, -999.0
18-11-2022, 00:23:34,    255,    4.1,    6.3,   0.00,   0.00,  991.5,   73.2, -999.0
18-11-2022, 00:23:44,    276,    1.6,    6.3,   0.00,   0.00,  991.6,   73.2, -999.0
18-11-2022, 00:23:54,    248,    3.8,    6.3,   0.00,   0.00,  991.5,   73.2, -999.0
18-11-2022, 00:24:04,    238,    2.6,    6.3,   0.00,   0.00,  991.6,   73.3, -999.0
18-11-2022, 00:24:14,    238,    2.5,    6.3,   0.00,   0.00,  991.6,   73.2, -999.0
18-11-2022, 00:24:24,    253,    2.2,    6.2,   0.00,   0.00,  991.6,   73.3, -999.0
18-11-2022, 00:24:34,    251,    3.4,    6.3,   0.00,   0.00,  991.6,   73.3, -999.0
18-11-2022, 00:24:44,    255,    3.3,    6.3,   0.00,   0.00,  991.6,   73.3, -999.0
18-11-2022, 00:24:54,    244,    3.2,    6.3,   0.00,   0.00,  991.6,   73.3, -999.0
18-11-2022, 00:25:04,    233,    4.9,    6.3,   0.00,   0.00,  991.6,   73.3, -999.0
18-11-2022, 00:25:14,    238,    6.4,    6.2,   0.00,   0.00,  991.6,   73.2, -999.0
18-11-2022, 00:25:24,    227,    5.7,    6.3,   0.00,   0.00,  991.6,   73.2, -999.0
18-11-2022, 00:25:34,    287,    3.6,    6.3,   0.00,   0.00,  991.6,   73.1, -999.0
18-11-2022, 00:25:44,    230,    3.7,    6.3,   0.00,   0.00,  991.6,   73.3, -999.0
18-11-2022, 00:25:54,    284,    3.3,    6.3,   0.00,   0.00,  991.6,   73.2, -999.0
18-11-2022, 00:26:04,    258,    2.1,    6.2,   0.00,   0.00,  991.6,   73.3, -999.0
18-11-2022, 00:26:14,    274,    3.7,    6.3,   0.00,   0.00,  991.6,   73.3, -999.0
18-11-2022, 00:26:24,    251,    2.0,    6.3,   0.00,   0.00,  991.6,   73.2, -999.0
18-11-2022, 00:26:34,    248,    3.1,    6.2,   0.00,   0.00,  991.6,   73.3, -999.0
18-11-2022, 00:26:44,    275,    2.9,    6.3,   0.00,   0.00,  991.6,   73.3, -999.0
18-11-2022, 00:26:54,    279,    1.9,    6.2,   0.00,   0.00,  991.6,   73.4, -999.0
18-11-2022, 00:27:04,    286,    0.8,    6.3,   0.00,   0.00,  991.6,   73.3, -999.0
18-11-2022, 00:27:15,    262,    0.6,    6.3,   0.00,   0.00,  991.6,   73.2, -999.0
18-11-2022, 00:27:24,    266,    0.6,    6.3,   0.00,   0.00,  991.6,   73.3, -999.0
18-11-2022, 00:27:34,    244,    2.9,    6.3,   0.00,   0.00,  991.6,   73.4, -999.0
18-11-2022, 00:27:43,    266,    2.6,    6.2,   0.00,   0.00,  991.6,   73.5, -999.0
18-11-2022, 00:27:53,    263,    2.9,    6.3,   0.00,   0.00,  991.6,   73.5, -999.0
18-11-2022, 00:28:04,    246,    2.4,    6.2,   0.00,   0.00,  991.6,   73.4, -999.0
18-11-2022, 00:28:13,    236,    3.1,    6.2,   0.00,   0.00,  991.6,   73.5, -999.0
18-11-2022, 00:28:23,    250,    2.9,    6.3,   0.00,   0.00,  991.6,   73.5, -999.0
18-11-2022, 00:28:33,    222,    2.8,    6.2,   0.00,   0.00,  991.6,   73.5, -999.0
18-11-2022, 00:28:43,    243,    2.0,    6.2,   0.00,   0.00,  991.6,   73.5, -999.0
18-11-2022, 00:28:53,    249,    3.1,    6.1,   0.00,   0.00,  991.6,   73.5, -999.0
18-11-2022, 00:29:03,    224,    0.9,    6.3,   0.00,   0.00,  991.6,   73.4, -999.0
18-11-2022, 00:29:13,    247,    0.9,    6.2,   0.00,   0.00,  991.6,   73.4, -999.0
18-11-2022, 00:29:23,    288,    2.9,    6.2,   0.00,   0.00,  991.5,   73.4, -999.0
18-11-2022, 00:29:33,    235,    3.7,    6.3,   0.00,   0.00,  991.6,   73.5, -999.0
18-11-2022, 00:29:43,    239,    2.6,    6.3,   0.00,   0.00,  991.6,   73.5, -999.0
18-11-2022, 00:29:53,    220,    3.4,    6.2,   0.00,   0.00,  991.6,   73.6, -999.0
18-11-2022, 00:30:03,    247,    1.4,    6.2,   0.00,   0.00,  991.6,   73.5, -999.0
18-11-2022, 00:30:13,    246,    1.0,    6.2,   0.00,   0.00,  991.6,   73.5, -999.0
18-11-2022, 00:30:23,    243,    0.3,    6.2,   0.00,   0.00,  991.5,   73.3, -999.0
18-11-2022, 00:30:33,    230,    3.2,    6.2,   0.00,   0.00,  991.6,   73.6, -999.0
18-11-2022, 00:30:43,    332,    1.7,    6.3,   0.00,   0.00,  991.6,   73.6, -999.0
18-11-2022, 00:30:53,    238,    0.6,    6.2,   0.00,   0.00,  991.5,   73.4, -999.0
18-11-2022, 00:31:03,    232,    0.1,    6.2,   0.00,   0.00,  991.5,   73.4, -999.0
18-11-2022, 00:31:13,    231,    1.1,    6.2,   0.00,   0.00,  991.6,   73.6, -999.0
18-11-2022, 00:31:23,    236,    0.6,    6.2,   0.00,   0.00,  991.5,   73.5, -999.0
18-11-2022, 00:31:33,    235,    1.8,    6.3,   0.00,   0.00,  991.6,   73.7, -999.0
18-11-2022, 00:31:43,    238,    2.2,    6.3,   0.00,   0.00,  991.6,   73.6, -999.0
18-11-2022, 00:31:53,    263,    2.3,    6.3,   0.00,   0.00,  991.6,   73.6, -999.0
18-11-2022, 00:32:03,    237,    1.6,    6.3,   0.00,   0.00,  991.6,   73.5, -999.0
18-11-2022, 00:32:13,    264,    1.7,    6.2,   0.00,   0.00,  991.6,   73.6, -999.0
18-11-2022, 00:32:22,    264,    0.9,    6.2,   0.00,   0.00,  991.6,   73.6, -999.0
18-11-2022, 00:32:33,    257,    1.2,    6.3,   0.00,   0.00,  991.6,   73.5, -999.0
18-11-2022, 00:32:43,    261,    3.6,    6.2,   0.00,   0.00,  991.5,   73.5, -999.0
18-11-2022, 00:32:52,    265,    4.9,    6.3,   0.00,   0.00,  991.6,   73.6, -999.0
18-11-2022, 00:33:03,    237,    3.9,    6.3,   0.00,   0.00,  991.6,   73.6, -999.0
18-11-2022, 00:33:13,    248,    5.2,    6.3,   0.00,   0.00,  991.6,   73.5, -999.0
18-11-2022, 00:33:22,    249,    4.6,    6.3,   0.00,   0.00,  991.6,   73.6, -999.0
18-11-2022, 00:33:32,    255,    0.7,    6.3,   0.00,   0.00,  991.6,   73.6, -999.0
18-11-2022, 00:33:43,    237,    0.6,    6.1,   0.00,   0.00,  991.6,   73.5, -999.0
18-11-2022, 00:33:52,    226,    3.5,    6.2,   0.00,   0.00,  991.7,   73.5, -999.0
18-11-2022, 00:34:02,    238,    4.6,    6.2,   0.00,   0.00,  991.6,   73.6, -999.0
18-11-2022, 00:34:12,    241,    5.7,    6.2,   0.00,   0.00,  991.6,   73.5, -999.0
18-11-2022, 00:34:23,    246,    2.1,    6.2,   0.00,   0.00,  991.6,   73.5, -999.0
18-11-2022, 00:34:32,    259,    1.1,    6.2,   0.00,   0.00,  991.6,   73.5, -999.0
18-11-2022, 00:34:42,    261,    1.0,    6.1,   0.00,   0.00,  991.6,   73.5, -999.0
18-11-2022, 00:34:52,    254,    3.1,    6.2,   0.00,   0.00,  991.6,   73.5, -999.0
18-11-2022, 00:35:02,    213,    2.5,    6.2,   0.00,   0.00,  991.6,   73.7, -999.0
18-11-2022, 00:35:12,    280,    0.6,    6.2,   0.00,   0.00,  991.6,   73.8, -999.0
18-11-2022, 00:35:22,    244,    0.9,    6.2,   0.00,   0.00,  991.6,   73.7, -999.0
18-11-2022, 00:35:32,    239,    1.2,    6.0,   0.00,   0.00,  991.6,   73.7, -999.0
18-11-2022, 00:35:42,    241,    0.3,    6.1,   0.00,   0.00,  991.5,   73.6, -999.0
18-11-2022, 00:35:52,    241,    0.0,    6.1,   0.00,   0.00,  991.5,   73.6, -999.0
18-11-2022, 00:36:02,    249,    1.0,    6.1,   0.00,   0.00,  991.5,   73.7, -999.0
18-11-2022, 00:36:12,    240,    2.0,    6.2,   0.00,   0.00,  991.6,   73.9, -999.0
18-11-2022, 00:36:22,    302,    1.0,    6.2,   0.00,   0.00,  991.6,   73.9, -999.0
18-11-2022, 00:36:32,    281,    0.2,    6.1,   0.00,   0.00,  991.5,   73.7, -999.0
18-11-2022, 00:36:42,    276,    0.8,    6.1,   0.00,   0.00,  991.6,   74.0, -999.0
18-11-2022, 00:36:52,    271,    2.1,    6.1,   0.00,   0.00,  991.6,   73.9, -999.0
18-11-2022, 00:37:02,    256,    1.6,    6.2,   0.00,   0.00,  991.6,   74.0, -999.0
18-11-2022, 00:37:12,    266,    3.2,    6.2,   0.00,   0.00,  991.6,   74.0, -999.0
18-11-2022, 00:37:22,    259,    1.9,    6.1,   0.00,   0.00,  991.6,   74.0, -999.0
18-11-2022, 00:37:32,    249,    3.5,    6.2,   0.00,   0.00,  991.6,   74.0, -999.0
18-11-2022, 00:37:42,    249,    3.8,    6.1,   0.00,   0.00,  991.6,   73.9, -999.0
18-11-2022, 00:37:52,    251,    4.0,    6.2,   0.00,   0.00,  991.6,   73.9, -999.0
18-11-2022, 00:38:01,    198,    2.2,    6.2,   0.00,   0.00,  991.6,   73.9, -999.0
18-11-2022, 00:38:12,    235,    2.8,    6.2,   0.00,   0.00,  991.6,   73.9, -999.0
18-11-2022, 00:38:22,    237,    2.7,    6.3,   0.00,   0.00,  991.7,   73.9, -999.0
18-11-2022, 00:38:31,    241,    1.3,    6.2,   0.00,   0.00,  991.6,   74.0, -999.0
18-11-2022, 00:38:41,    232,    2.8,    6.2,   0.00,   0.00,  991.7,   74.0, -999.0
18-11-2022, 00:38:52,    287,    2.0,    6.2,   0.00,   0.00,  991.7,   74.0, -999.0
18-11-2022, 00:39:01,    263,    4.9,    6.2,   0.00,   0.00,  991.6,   73.9, -999.0
18-11-2022, 00:39:11,    248,    1.9,    6.2,   0.00,   0.00,  991.6,   73.9, -999.0
18-11-2022, 00:39:22,    265,    2.0,    6.2,   0.00,   0.00,  991.6,   73.9, -999.0
18-11-2022, 00:39:31,    224,    1.2,    6.2,   0.00,   0.00,  991.7,   73.9, -999.0
18-11-2022, 00:39:41,    255,    1.0,    6.2,   0.00,   0.00,  991.7,   74.0, -999.0
18-11-2022, 00:39:51,    257,    0.0,    6.1,   0.00,   0.00,  991.6,   73.6, -999.0
18-11-2022, 00:40:02,    262,    0.8,    6.2,   0.00,   0.00,  991.7,   74.0, -999.0
18-11-2022, 00:40:11,    240,    1.0,    6.2,   0.00,   0.00,  991.7,   73.9, -999.0
18-11-2022, 00:40:21,    252,    3.6,    6.2,   0.00,   0.00,  991.7,   74.0, -999.0
18-11-2022, 00:40:31,    272,    4.5,    6.1,   0.00,   0.00,  991.7,   73.9, -999.0
18-11-2022, 00:40:41,    299,    3.4,    6.2,   0.00,   0.00,  991.7,   73.8, -999.0
18-11-2022, 00:40:51,    256,    1.4,    6.2,   0.00,   0.00,  991.8,   73.9, -999.0
18-11-2022, 00:41:01,    231,    1.2,    6.2,   0.00,   0.00,  991.7,   73.9, -999.0
18-11-2022, 00:41:11,    286,    0.9,    6.2,   0.00,   0.00,  991.8,   73.8, -999.0
18-11-2022, 00:41:21,    284,    1.4,    6.2,   0.00,   0.00,  991.8,   73.9, -999.0
18-11-2022, 00:41:31,    265,    0.6,    6.2,   0.00,   0.00,  991.8,   73.9, -999.0
18-11-2022, 00:41:41,    236,    1.4,    6.2,   0.00,   0.00,  991.7,   73.9, -999.0
18-11-2022, 00:41:51,    256,    3.3,    6.2,   0.00,   0.00,  991.7,   73.9, -999.0
18-11-2022, 00:42:01,    262,    1.9,    6.1,   0.00,   0.00,  991.7,   74.0, -999.0
18-11-2022, 00:42:11,    310,    1.1,    6.1,   0.00,   0.00,  991.8,   74.0, -999.0
18-11-2022, 00:42:21,    180,    0.4,    6.2,   0.00,   0.00,  991.7,   74.0, -999.0
18-11-2022, 00:42:31,    250,    1.3,    6.2,   0.00,   0.00,  991.7,   74.0, -999.0
18-11-2022, 00:42:41,    252,    1.2,    6.1,   0.00,   0.00,  991.7,   74.0, -999.0
18-11-2022, 00:42:51,    245,    2.2,    6.1,   0.00,   0.00,  991.7,   74.0, -999.0
18-11-2022, 00:43:01,    258,    2.3,    6.2,   0.00,   0.00,  991.7,   74.0, -999.0
18-11-2022, 00:43:11,    233,    1.4,    6.1,   0.00,   0.00,  991.7,   73.9, -999.0
18-11-2022, 00:43:21,    225,    1.9,    6.1,   0.00,   0.00,  991.7,   74.0, -999.0
18-11-2022, 00:43:31,    225,    0.4,    6.1,   0.00,   0.00,  991.7,   74.0, -999.0
18-11-2022, 00:43:40,    251,    0.5,    6.1,   0.00,   0.00,  991.7,   74.0, -999.0
18-11-2022, 00:43:51,    251,    0.0,    6.1,   0.00,   0.00,  991.6,   73.8, -999.0
18-11-2022, 00:44:01,    249,    1.1,    6.1,   0.00,   0.00,  991.8,   74.1, -999.0
18-11-2022, 00:44:12,    261,    3.4,    6.2,   0.00,   0.00,  991.8,   74.1, -999.0
18-11-2022, 00:44:20,    285,    2.2,    6.1,   0.00,   0.00,  991.7,   74.1, -999.0
18-11-2022, 00:44:31,    236,    2.4,    6.2,   0.00,   0.00,  991.8,   74.0, -999.0
18-11-2022, 00:44:40,    242,    1.8,    6.1,   0.00,   0.00,  991.8,   74.0, -999.0
18-11-2022, 00:44:50,    257,    2.5,    6.2,   0.00,   0.00,  991.7,   74.1, -999.0
18-11-2022, 00:45:00,    245,    1.9,    6.1,   0.00,   0.00,  991.7,   74.1, -999.0
18-11-2022, 00:45:10,    247,    0.6,    6.1,   0.00,   0.00,  991.7,   74.0, -999.0
18-11-2022, 00:45:20,    247,    0.7,    6.1,   0.00,   0.00,  991.7,   74.0, -999.0
18-11-2022, 00:45:30,    248,    0.5,    6.2,   0.00,   0.00,  991.8,   74.2, -999.0
18-11-2022, 00:45:40,    248,    0.5,    6.1,   0.00,   0.00,  991.7,   74.0, -999.0
18-11-2022, 00:45:50,    252,    1.1,    6.1,   0.00,   0.00,  991.6,   74.0, -999.0
18-11-2022, 00:46:00,    248,    4.1,    6.1,   0.00,   0.00,  991.7,   74.2, -999.0
18-11-2022, 00:46:10,    251,    3.0,    6.1,   0.00,   0.00,  991.8,   74.2, -999.0
18-11-2022, 00:46:20,    208,    4.9,    6.1,   0.00,   0.00,  991.7,   74.1, -999.0
18-11-2022, 00:46:30,    237,    2.3,    6.1,   0.00,   0.00,  991.7,   74.2, -999.0
18-11-2022, 00:46:40,    222,    2.1,    6.1,   0.00,   0.00,  991.7,   74.0, -999.0
18-11-2022, 00:46:50,    231,    2.7,    6.1,   0.00,   0.00,  991.7,   74.1, -999.0